This is the latest recevied weather packets stored in our database for station/object S54A-11. If no packets are shown the sender has not sent any weather packets the latest 10 day(s).
| Time | Temp. | Humidity | Pressure | Rain* | Wind** | Luminosity | Snow |
|---|---|---|---|---|---|---|---|
| 1787985913 | 22.78° C | 60% | 1016.2 hPa | - | - | - | - |
| 1787985013 | 21.67° C | 62% | 1016.1 hPa | - | - | - | - |
| 1787984113 | 20.56° C | 61% | 1016.2 hPa | - | - | - | - |
| 1787983213 | 19.44° C | 62% | 1016.1 hPa | - | - | - | - |
| 1787982313 | 18.89° C | 63% | 1016.2 hPa | - | - | - | - |
| 1787981412 | 18.33° C | 63% | 1015.7 hPa | - | - | - | - |
| 1787980512 | 18.33° C | 63% | 1015.5 hPa | - | - | - | - |
| 1787979612 | 17.78° C | 64% | 1015.3 hPa | - | - | - | - |
| 1787978712 | 17.78° C | 64% | 1015.1 hPa | - | - | - | - |
| 1787977812 | 17.78° C | 65% | 1015.1 hPa | - | - | - | - |
| 1787976912 | 17.78° C | 65% | 1014.8 hPa | - | - | - | - |
| 1787976012 | 17.78° C | 64% | 1015 hPa | - | - | - | - |
| 1787975112 | 17.78° C | 65% | 1015.1 hPa | - | - | - | - |
| 1787974212 | 17.78° C | 64% | 1015 hPa | - | - | - | - |
| 1787973312 | 17.78° C | 64% | 1015 hPa | - | - | - | - |
| 1787972412 | 17.78° C | 65% | 1014.8 hPa | - | - | - | - |
| 1787971512 | 17.78° C | 65% | 1015 hPa | - | - | - | - |
| 1787970612 | 18.33° C | 64% | 1014.8 hPa | - | - | - | - |
| 1787969712 | 18.33° C | 64% | 1014.7 hPa | - | - | - | - |
| 1787968812 | 18.33° C | 64% | 1014.7 hPa | - | - | - | - |
| 1787967911 | 17.78° C | 66% | 1014.7 hPa | - | - | - | - |
| 1787967011 | 17.78° C | 65% | 1014.5 hPa | - | - | - | - |
| 1787966111 | 17.78° C | 66% | 1014.4 hPa | - | - | - | - |
| 1787965211 | 17.78° C | 66% | 1014.3 hPa | - | - | - | - |
| 1787964311 | 17.78° C | 68% | 1014.2 hPa | - | - | - | - |
* Rain since midnight (hover to see other rain measurements)
** Current wind speed in m/s (hover to see current wind gust speed)